ISS DEB (44789 NORAD) Tracking and Keplerian Element Data

This shows tracking and keplerian element data for the satellite.

Feedback or suggestion? Click here.




ElementValue
Catalog44789
NameISS DEB
Epoch Orbit974
Epoch Day17.39207235
Epoch Year2020
RAAN19.1319
Inclination51.6482
Eccentricity0.0007154
Argument of Perigee149.3264
Mean Anonmoly210.8135
Mean Motion15.51414988
Decay Rate9.709E-05
L11 44789U 98067QU 20017.39207235 .00009709 00000-0 16920-3 0 9999
L22 44789 51.6482 19.1319 0007154 149.3264 210.8135 15.51414988 9746

Live tracking and technical data element details for ISS DEB (NORAD 44789). ISS DEB can be tracked NOW for your location showing map with azimuth and elevation plus other details from your city location.

Track the satellite on the map from your city or location and see movement details for azimuth, elevation, latitude, longitude, range, height, and movement on the map or in text.







IsCatalogInMostPopularTable: catalog: 44789, numindb: 87
Update: records affected: 1



GetName: 44789 ISS DEB

Hit Count: updated at: Mon, 20 Jan 2020 03:52:07 GMT